{"data":{"norad_id":65462,"epoch":"2026-09-20T07:29:42.632736Z","epoch_age_seconds":131050,"freshness":"FRESH","line1":"1 65462U 25195E   26263.31229899  .00004119  00000+0  13304-3 0  9995","line2":"2 65462  53.1616  70.4666 0000861 100.2648 259.8452 15.34383621 59849","mean_motion":15.34383621,"eccentricity":8.61e-5,"inclination_deg":53.1616,"raan_deg":70.4666,"arg_perigee_deg":100.2648,"mean_anomaly_deg":259.8452,"bstar":0.00013304,"rev_number":5984,"period_min":93.848759872809,"perigee_km":462.16292194365,"apogee_km":463.3409230161,"semimajor_km":6840.8889224799,"source":"CELESTRAK","updated_at":"2026-09-21T09:00:35.614461Z"}}